Regional Weather Roundup
Issued by NWS

Home | Current Version | Previous Version | Graphics & Text | Print | Product List | Glossary On
Versions: 1 2 3 4 5 6 7 8 9 10 11 12 13 14 15 16 17 18 19 20 21 22 23 24 25 26 27 28 29 30 31 32 33 34 35 36 37 38 39 40 41 42 43 44 45 46 47 48 49 50
000
ASUS45 KCYS 170310
RWRWY

WYOMING REGIONAL WEATHER ROUNDUP
NATIONAL WEATHER SERVICE CHEYENNE WY
900 PM MDT TUE SEP 16 2014

NOTE:  "FAIR" INDICATES FEW OR NO CLOUDS BELOW 12,000 FEET
WITH NO SIGNIFICANT WEATHER AND/OR OBSTRUCTIONS TO VISIBILITY.

WYZ001-170400-
YELLOWSTONE NATIONAL PARK

CITY           SKY/WX    TMP DP  RH WIND       PRES   REMARKS
LK YELLOWSTONE   N/A     49  40  71 CALM      30.27S
W YELLOWSTONE  NOT AVBL

$$
WYZ002>013-054>058-071-098>099-170400-
NORTHERN WYOMING

CITY           SKY/WX    TMP DP  RH WIND       PRES   REMARKS
JACKSON        PTCLDY    57  43  58 NE3       30.16R
CODY             N/A     59  45  58 S7        30.07S
GREYBULL       MOCLDY    64  44  48 W8        29.98R
WORLAND        MOCLDY    67  49  52 CALM      30.00R
SHERIDAN       MOCLDY    58  46  64 CALM      30.00S
BUFFALO        MOCLDY    63  39  41 W10       30.08R
GILLETTE       PTCLDY    50  42  74 SW6       30.02R
HULETT         FAIR      63  37  39 MISG      30.03
NEWCASTLE      FAIR      66  32  28 N6        30.02

$$
WYZ014>020-022>026-101>103-170400-
CENTRAL WYOMING

CITY           SKY/WX    TMP DP  RH WIND       PRES   REMARKS
BIG PINEY      PTCLDY    63  37  38 NW18G26   30.24R
PINEDALE       PTCLDY    59  34  38 NW6       30.23R
DUBOIS         FAIR      52  43  71 NW6       30.23S
LANDER         PTCLDY    69  41  36 NW9       30.13R
RIVERTON       PTCLDY    71  40  32 N22G33    30.09R
CASPER         PTCLDY    69  35  28 CALM      30.08R
DOUGLAS        PTCLDY    71  36  27 VRB6      30.06R

$$
WYZ021-027>030-104>119-170400-
SOUTHERN WYOMING

CITY           SKY/WX    TMP DP  RH WIND       PRES   REMARKS
EVANSTON       CLEAR     69  35  28 W5        30.23R
KEMMERER       PTCLDY   N/A N/A N/A S5        30.25R
FORT BRIDGER   FAIR      65  41  42 SE10      30.25S
ROCK SPRINGS   MOCLDY    66  37  34 SW8       30.21S
DIXON          CLOUDY    64  41  42 NE6       30.23R
RAWLINS        MOCLDY    67  33  28 SW7       30.20R
SARATOGA       FAIR      64  34  32 W9        30.24R
LARAMIE        PTCLDY    58  33  39 W7        30.23R
CHEYENNE       PTCLDY    64  36  35 CALM      30.17R
TORRINGTON     CLEAR     63  45  51 E6        29.99R
PINE BLUFFS    FAIR      59  36  41 CALM      30.10R

$$


USA.gov is the U.S. government's official web portal to all federal, state and local government web resources and services.